Tracking 19908 objects as of 18-Oct-2019
HD Live streaming from Space Station
objects crossing your sky now

COSMOS 1275 DEB

Track COSMOS 1275 DEB now!
10-day predictions


NORAD ID: 42190
Int'l Code: 1981-053TE
Perigee: 812.9 km
Apogee: 874.1 km
Inclination: 82.9 °
Period: 101.6 minutes
Semi major axis: 7214 km
RCS: Unknown
Launch date: June 4, 1981
Source: Commonwealth of Independent States (former USSR) (CIS)
Launch site: PLESETSK MISSILE AND SPACE COMPLEX (PKMTR)

Note: This is SATELLITE DEBRIS
aabbcc
Your satellite tracking list
Your tracking list is empty




NASA's NSSDC Master Catalog

Two Line Element Set (TLE):
1 42190U 81053TE  19289.12674858  .00000776  00000-0  37667-3 0  9995
2 42190  82.9328 228.1018 0042441 196.2595 163.7225 14.16743367815860
Source of the keplerian elements: AFSPC